Meteo Giornale » Osservazioni meteo Turchia » Trabzon
ore: 09:50 - Osservazioni Meteo Trabzon
Lat. 41° 0' N Lon. 39° 43' E Alt. 35 metri s.l.m.
27 °C
Nuvoloso
Temp. 24 Ore
22 °C
27 °C
Nord
7.4 Km/h
Dew point 18 °C
Umidità 57 %
Visibilità 10 Km
Il sole sorge alle ore 05:47
Il sole tramonta alle ore 18:54
| Data e Ora | Cielo e Fenomeni | T °C | DP °C | Um. % | Pres. hPa | Vis. km | Vento km/h | |
|---|---|---|---|---|---|---|---|---|
| Oggi h: 09:50 | Nuvoloso | 27 | 18 | 57 | 1015 | 10 | N 7.4 | |
| Oggi h: 09:20 | Nuvoloso | 25 | 18 | 65 | 1015 | 10 | N 5.5 | |
| Oggi h: 08:50 | Nuvoloso | 26 | 18 | 61 | 1015 | 10 | N/NE 7.4 | |
| Oggi h: 08:20 | Nuvoloso | 26 | 18 | 61 | 1015 | 10 | NE 7.4 | |
| Oggi h: 07:50 | Nuvoloso | 25 | 18 | 65 | 1015 | 10 | N 0 | |
| Oggi h: 07:20 | Nuvoloso | 24 | 18 | 69 | 1015 | 10 | N 1.8 | |
| Oggi h: 06:50 | Nuvoloso | 23 | 18 | 73 | 1015 | 10 | S/SO 9.3 | |
| Oggi h: 06:20 | Nuvoloso | 22 | 17 | 73 | 1015 | 10 | SO 7.4 | |
| Oggi h: 05:50 | Nuvoloso | 22 | 18 | 78 | 1015 | 10 | SO 9.3 | |
| Oggi h: 05:20 | Nuvoloso | 22 | 18 | 78 | 1015 | 10 | N 5.5 | |
| Oggi h: 04:50 | Nuvoloso | 22 | 17 | 73 | 1014 | 10 | SO 7.4 | |
| Oggi h: 04:20 | Nuvoloso | 22 | 17 | 73 | 1014 | 10 | SO 7.4 | |
| Oggi h: 03:50 | Nuvoloso | 22 | 17 | 73 | 1014 | 10 | SO 7.4 | |
| Oggi h: 03:20 | Molto Nuvoloso | 23 | 17 | 68 | 1014 | 10 | N 3.7 | |
| Oggi h: 02:50 | Molto Nuvoloso | 23 | 17 | 68 | 1015 | 10 | N 3.7 | |
| Oggi h: 02:20 | Molto Nuvoloso | 24 | 17 | 64 | 1015 | 10 | N 3.7 | |
| Oggi h: 01:50 | Molto Nuvoloso | 24 | 17 | 64 | 1014 | 10 | O/SO 9.3 | |
| Oggi h: 01:20 | Molto Nuvoloso | 24 | 17 | 64 | 1014 | 10 | N 5.5 | |
| Oggi h: 00:50 | Molto Nuvoloso | 24 | 17 | 64 | 1015 | 10 | N 0 | |
| Oggi h: 00:20 | Molto Nuvoloso | 24 | 17 | 64 | 1015 | 10 | SE 7.4 | |
| Ieri h: 23:50 | Molto Nuvoloso | 24 | 17 | 64 | 1015 | 10 | S/SO 7.4 | |
| Ieri h: 23:20 | Molto Nuvoloso | 24 | 17 | 64 | 1015 | 10 | O/SO 11.1 | |
| Ieri h: 22:50 | Molto Nuvoloso | 23 | 17 | 68 | 1015 | 10 | SO 14.8 | |
| Ieri h: 22:20 | Molto Nuvoloso | 23 | 18 | 73 | 1015 | 10 | SO 18.5 | |
| Ieri h: 21:50 | Molto Nuvoloso | 24 | 17 | 64 | 1015 | 10 | SO 20.3 | |
| Ieri h: 21:20 | Molto Nuvoloso | 24 | 17 | 64 | 1015 | 10 | SO 14.8 | |
| Ieri h: 20:50 | Molto Nuvoloso | 24 | 18 | 69 | 1015 | 10 | O/SO 18.5 | |
| Ieri h: 20:20 | Molto Nuvoloso | 23 | 19 | 78 | 1015 | 10 | O/SO 13 | |
| Ieri h: 20:01 | Pioggia | 24 | 18 | 69 | 1015 | 10 | O 18.5 | |
| Ieri h: 19:50 | Molto Nuvoloso | 24 | 18 | 69 | 1014 | 10 | O/NO 25.9 | |
| Ieri h: 19:20 | Molto Nuvoloso | 25 | 19 | 69 | 1014 | 10 | O/NO 22.2 | |
| Ieri h: 18:50 | Molto Nuvoloso | 25 | 20 | 73 | 1014 | 10 | NO 18.5 | |
| Ieri h: 18:20 | Molto Nuvoloso | 25 | 20 | 73 | 1014 | 10 | NO 20.3 | |
| Ieri h: 17:50 | Molto Nuvoloso | 25 | 20 | 73 | 1014 | 10 | NO 16.7 | |
| Ieri h: 17:20 | Molto Nuvoloso | 26 | 20 | 69 | 1013 | 10 | NO 18.5 | |
| Ieri h: 16:50 | Molto Nuvoloso | 26 | 21 | 73 | 1013 | 10 | NO 20.3 | |
| Ieri h: 16:20 | Molto Nuvoloso | 26 | 21 | 73 | 1013 | 10 | NO 22.2 | |
| Ieri h: 15:50 | Molto Nuvoloso | 26 | 20 | 69 | 1013 | 10 | NO 25.9 | |
| Ieri h: 15:20 | Molto Nuvoloso | 26 | 20 | 69 | 1013 | 10 | NO 22.2 | |
| Ieri h: 14:50 | Molto Nuvoloso | 26 | 21 | 73 | 1013 | 10 | NO 24 | |
| Ieri h: 14:20 | Molto Nuvoloso | 26 | 21 | 73 | 1013 | 10 | NO 25.9 | |
| Ieri h: 13:50 | Molto Nuvoloso | 26 | 21 | 73 | 1013 | 10 | N/NO 25.9 | |
| Ieri h: 13:20 | Molto Nuvoloso | 26 | 21 | 73 | 1013 | 10 | NO 27.8 | |
| Ieri h: 12:50 | Molto Nuvoloso | 26 | 21 | 73 | 1013 | 10 | NO 24 | |
| Ieri h: 12:20 | Molto Nuvoloso | 26 | 21 | 73 | 1013 | 10 | N/NO 24 | |
| Ieri h: 11:50 | Molto Nuvoloso | 27 | 21 | 69 | 1013 | 10 | N/NO 14.8 | |
| Ieri h: 11:20 | Molto Nuvoloso | 27 | 19 | 61 | 1013 | 10 | N 9.3 | |
| Ieri h: 10:50 | Molto Nuvoloso | 27 | 20 | 65 | 1013 | 10 | N 7.4 | |



